Flagler County, Palm Coast, FL

5:43 AM EDT on June 23, 2017 (GMT -0400)
Flagler County, Palm Coast

Weather History for KXFL - March, 2014

Change the Weather History Date:

Sunday, March 9, 2014

  Actual Average (KDAB) Record (KDAB)
Temperature  
Mean Temperature 59 °F -  
Max Temperature 75 °F 72 °F 85 °F (1964)
Min Temperature 43 °F 51 °F 31 °F (1957)
Degree Days  
Heating Degree Days 6    
Growing Degree Days 9 (Base 50)    
Moisture  
Dew Point 48 °F    
Average Humidity 81    
Maximum Humidity 100    
Minimum Humidity 36    
Precipitation  
Precipitation 0.00 in - - ()
Sea Level Pressure  
Sea Level Pressure 30.15 in    
Wind  
Wind Speed 1 mph (West)    
Max Wind Speed 7 mph    
Max Gust Speed -    
Visibility 9 miles    
Events      
Averages and records for this station are not official NWS values.
T = Trace of Precipitation, MM = Missing Value Source: NWS Daily Summary

Daily Weather History Graph

Daily Weather History Graph

Search for Another Location

Airport or City:

Trip Planner

Search our weather history database for the weather conditions in past years. The results will help you decide how hot, cold, wet, or windy it might be!

Date:

Astronomy

Mar. 09, 2014 Rise Set
Actual Time 7:41 AM EDT 7:29 PM EDT
Civil Twilight 7:17 AM EDT 7:53 PM EDT
Nautical Twilight 6:50 AM EDT 8:20 PM EDT
Astronomical Twilight 6:22 AM EDT 8:48 PM EDT
Moon 1:39 PM EDT (3/9) 3:47 AM EDT (3/9)
Length of Visible Light 12h 35m
Length of Day
11h 47m
First Quarter, 61% of the Moon is Illuminated
Mar 9
First Quarter
Mar 16
Full
Mar 23
Last Quarter
Mar 30
New
Apr 7
First Quarter

Hourly Weather History & Observations

Time (EDT) Temp. Dew Point Humidity Pressure Visibility Wind Dir Wind Speed Gust Speed Precip Events Conditions
12:15 AM 45.1 °F 43.3 °F 93% 30.17 in 10.0 mi Calm Calm - N/A   Clear
12:35 AM 45.7 °F 44.2 °F 95% 30.17 in 10.0 mi Calm Calm - N/A   Clear
12:55 AM 45.7 °F 43.3 °F 92% 30.17 in 10.0 mi Calm Calm - N/A   Clear
1:15 AM 44.8 °F 43.0 °F 93% 30.17 in 10.0 mi Calm Calm - N/A   Clear
1:35 AM 45.5 °F 44.1 °F 95% 30.17 in 10.0 mi Calm Calm - N/A   Clear
1:55 AM 45.1 °F 43.3 °F 93% 30.17 in 10.0 mi Calm Calm - N/A   Clear
3:15 AM 45.5 °F 43.9 °F 94% 30.16 in 10.0 mi Calm Calm - N/A   Clear
3:35 AM 45.3 °F 43.5 °F 93% 30.16 in 10.0 mi Calm Calm - N/A   Clear
3:55 AM 44.1 °F 41.7 °F 91% 30.15 in 10.0 mi Calm Calm - N/A   Clear
4:15 AM 43.9 °F 42.8 °F 96% 30.15 in 10.0 mi Calm Calm - N/A   Clear
4:35 AM 45.0 °F 44.2 °F 97% 30.15 in 10.0 mi Calm Calm - N/A   Clear
4:55 AM 45.5 °F 44.1 °F 95% 30.15 in 10.0 mi Calm Calm - N/A   Clear
5:15 AM 44.4 °F 43.2 °F 95% 30.15 in 10.0 mi Calm Calm - N/A   Clear
5:35 AM 45.5 °F 44.8 °F 97% 30.16 in 10.0 mi Calm Calm - N/A   Clear
5:50 AM 46.4 °F 44.6 °F 93% 30.16 in 7.0 mi Calm Calm - N/A   Clear
5:55 AM 46.6 °F 45.7 °F 97% 30.16 in 10.0 mi Calm Calm - N/A   Clear
6:15 AM 46.0 °F 45.1 °F 97% 30.17 in 10.0 mi Calm Calm - N/A   Clear
6:35 AM 46.4 °F 45.3 °F 96% 30.17 in 10.0 mi Calm Calm - N/A   Clear
6:50 AM 46.4 °F 44.6 °F 93% 30.17 in 7.0 mi Calm Calm - N/A   Clear
7:50 AM 44.6 °F 44.6 °F 100% 30.18 in 7.0 mi Calm Calm - N/A   Clear
8:50 AM 51.8 °F 48.2 °F 88% 30.21 in 7.0 mi Calm Calm - N/A   Clear
9:50 AM 59.0 °F 50.0 °F 72% 30.21 in 7.0 mi Calm Calm - N/A   Clear
10:50 AM 64.4 °F 48.2 °F 56% 30.22 in 7.0 mi West 5.8 mph - N/A   Clear
11:50 AM 68.0 °F 48.2 °F 49% 30.22 in 7.0 mi NNW 5.8 mph - N/A   Clear
12:50 PM 69.8 °F 48.2 °F 46% 30.19 in 7.0 mi WNW 6.9 mph - N/A   Clear
1:50 PM 71.6 °F 48.2 °F 43% 30.15 in 7.0 mi NNW 4.6 mph - N/A   Clear
2:50 PM 73.4 °F 46.4 °F 38% 30.13 in 7.0 mi West 4.6 mph - N/A   Clear
3:50 PM 75.2 °F 46.4 °F 36% 30.12 in 7.0 mi WNW 5.8 mph - N/A   Clear
4:50 PM 73.4 °F 51.8 °F 47% 30.10 in 7.0 mi Variable 6.9 mph - N/A   Clear
5:50 PM 69.8 °F 50.0 °F 49% 30.10 in 7.0 mi East 6.9 mph - N/A   Clear
6:50 PM 66.2 °F 51.8 °F 60% 30.11 in 7.0 mi Variable 6.9 mph - N/A   Clear
8:15 PM 60.8 °F 52.0 °F 73% 30.12 in 10.0 mi Calm Calm - N/A   Clear
8:35 PM 60.4 °F 52.2 °F 74% 30.12 in 10.0 mi Calm Calm - N/A   Clear
8:55 PM 58.6 °F 51.8 °F 78% 30.12 in 10.0 mi Calm Calm - N/A   Clear
9:15 PM 58.6 °F 52.0 °F 79% 30.12 in 10.0 mi Calm Calm - N/A   Clear
9:35 PM 58.5 °F 52.2 °F 80% 30.12 in 10.0 mi Calm Calm - N/A   Clear
9:55 PM 57.6 °F 52.2 °F 82% 30.13 in 10.0 mi Calm Calm - N/A   Clear
10:15 PM 58.1 °F 52.3 °F 81% 30.13 in 10.0 mi Calm Calm - N/A   Clear
10:35 PM 57.4 °F 52.0 °F 82% 30.14 in 10.0 mi Calm Calm - N/A   Clear
10:55 PM 56.5 °F 51.8 °F 84% 30.14 in 10.0 mi SW 3.5 mph - N/A   Clear
11:15 PM 56.7 °F 52.0 °F 84% 30.14 in 10.0 mi Calm Calm - N/A   Clear
11:35 PM 55.6 °F 51.8 °F 87% 30.15 in 10.0 mi West 6.9 mph - N/A   Clear
11:55 PM 56.3 °F 51.8 °F 85% 30.15 in 10.0 mi WSW 3.5 mph - N/A   Clear
12:15 AM 55.8 °F 51.4 °F 85% 30.14 in 10.0 mi West 3.5 mph - N/A   Clear
12:35 AM 55.4 °F 51.1 °F 85% 30.14 in 10.0 mi Calm Calm - N/A   Clear
12:55 AM 54.9 °F 50.7 °F 86% 30.13 in 10.0 mi Calm Calm - N/A   Clear